Regional Weather Roundup
Issued by NWS

Home | Current Version | Previous Version | Text Only | Print | Product List | Glossary On
Versions: 1 2 3 4 5 6 7 8 9 10 11 12 13 14 15 16 17 18 19 20 21 22 23 24 25 26 27 28 29 30 31 32 33 34 35 36 37 38 39 40 41 42 43 44 45 46 47 48 49 50
000
ASCA42 TJSJ 251210
RWRPR
PUERTO RICO/U.S. VIRGIN ISLANDS HOURLY WEATHER ROUNDUP
NATIONAL WEATHER SERVICE SAN JUAN PR
800 AM AST MON JUL 25 2016

PRZ001-004-251300-
PUERTO RICO

CITY           SKY/WX    TMP DP  RH WIND       PRES   REMARKS
SAN JUAN LMM   MOSUNNY   81  75  83 SE3       30.02S
AGUADILLA      SUNNY     79  72  78 E7        30.04R
CEIBA          MOSUNNY   82  77  83 NE7       30.04S HX  91
$$

PRZ006-007-251300-
U.S. VIRGIN ISLANDS

CITY           SKY/WX    TMP DP  RH WIND       PRES   REMARKS
CHARLOTTE AMA  MOSUNNY   86  75  70 E13G20    30.01  HX  95
CHRISTIANSTED  MOSUNNY   84  75  74 E12       30.02R HX  92
$$

HOURLY WEATHER ROUNDUP FOR THE NEWS MEDIA

CITY           SKY/WX    TMP DP  RH WIND       PRES   REMARKS
ORLANDO        SUNNY     77  74  90 CALM      30.07R
NEW YORK       CLOUDY    78  73  84 S7        29.95F
NEWARK         CLOUDY    78  70  76 SW8       29.93F
CHICAGO        MOSUNNY   74  69  85 NW8       29.97R
HARTFORD       MOSUNNY   75  68  78 SW6       29.95F
BOSTON         CLOUDY    72  61  68 SE5       29.95S
DALLAS         MOCLDY    82  73  74 S6        29.97R
PHILADELPHIA   CLOUDY    76  74  93 S5        29.94F
LOS ANGELES    PTCLDY    70  65  84 S5        29.92R
WASHINGTON DC  PTSUNNY   81  73  76 CALM      29.98S


USA.gov is the U.S. government's official web portal to all federal, state and local government web resources and services.